{"data":{"norad_id":64719,"epoch":"2026-09-20T04:12:44.940960Z","epoch_age_seconds":156003,"freshness":"FRESH","line1":"1 64719U 25142Z   26263.17552015  .00013954  00000+0  48874-3 0  9991","line2":"2 64719  70.0010 181.6338 0003409 269.4201  90.6583 15.29593973 68689","mean_motion":15.29593973,"eccentricity":0.0003409,"inclination_deg":70.001,"raan_deg":181.6338,"arg_perigee_deg":269.4201,"mean_anomaly_deg":90.6583,"bstar":0.00048874,"rev_number":6868,"period_min":94.142630359331,"perigee_km":474.68822943382,"apogee_km":479.36207899056,"semimajor_km":6855.1621542122,"source":"CELESTRAK","updated_at":"2026-09-21T09:00:35.407904Z"}}